| time (UTC) | temp F | wind direction | speed MPH | gust MPH | rain 1hr in | rain 24hr in | rain mn in | humidity % | barometer mb |
| 20260905001551 | 92 | 155 | 0.0 | 1.0 | 0.00 | 0.00 | 0.00 | 57 | 1012.2 |
| 20260905000052 | 94 | 0 | 0.0 | 1.0 | 0.00 | 0.00 | 0.00 | 55 | 1012.3 |
| 20260904234550 | 95 | 153 | 1.0 | 2.0 | 0.00 | 0.00 | 0.00 | 53 | 1012.3 |
| 20260904233046 | 97 | 103 | 1.0 | 4.0 | 0.00 | 0.00 | 0.00 | 50 | 1012.3 |
| 20260904231543 | 98 | 210 | 0.0 | 6.0 | 0.00 | 0.00 | 0.00 | 49 | 1012.4 |
| 20260904230054 | 98 | 203 | 1.0 | 4.0 | 0.00 | 0.00 | 0.00 | 49 | 1012.5 |
| 20260904224544 | 99 | 186 | 1.0 | 8.0 | 0.00 | 0.00 | 0.00 | 49 | 1012.4 |
| 20260904223047 | 99 | 124 | 1.0 | 6.0 | 0.00 | 0.00 | 0.00 | 47 | 1012.4 |
| 20260904221542 | 99 | 218 | 1.0 | 5.0 | 0.00 | 0.00 | 0.00 | 48 | 1012.5 |
| 20260904220052 | 99 | 81 | 1.0 | 5.0 | 0.00 | 0.00 | 0.00 | 47 | 1012.5 |
| 20260904214551 | 100 | 119 | 2.0 | 5.0 | 0.00 | 0.00 | 0.00 | 47 | 1012.7 |
| 20260904213047 | 99 | 226 | 2.0 | 5.0 | 0.00 | 0.00 | 0.00 | 48 | 1012.8 |
| 20260904211542 | 100 | 224 | 1.0 | 4.0 | 0.00 | 0.00 | 0.00 | 48 | 1012.8 |
| 20260904210045 | 99 | 155 | 1.0 | 6.0 | 0.00 | 0.00 | 0.00 | 50 | 1012.9 |
| 20260904204552 | 99 | 250 | 1.0 | 7.0 | 0.00 | 0.00 | 0.00 | 51 | 1013.1 |
| 20260904203043 | 99 | 165 | 0.0 | 9.0 | 0.00 | 0.00 | 0.00 | 52 | 1013.2 |
| 20260904201543 | 98 | 92 | 3.0 | 6.0 | 0.00 | 0.00 | 0.00 | 51 | 1013.3 |
| 20260904200052 | 98 | 216 | 1.0 | 6.0 | 0.00 | 0.00 | 0.00 | 53 | 1013.4 |
| 20260904194606 | 98 | 147 | 1.0 | 7.0 | 0.00 | 0.02 | 0.00 | 53 | 1013.5 |
| 20260904193043 | 98 | 193 | 3.0 | 13.0 | 0.00 | 0.02 | 0.00 | 53 | 1013.6 |
| 20260904191543 | 97 | 284 | 2.0 | 8.0 | 0.00 | 0.02 | 0.00 | 53 | 1013.7 |
| 20260904190055 | 97 | 229 | 1.0 | 7.0 | 0.00 | 0.02 | 0.00 | 54 | 1013.8 |
| 20260904184549 | 97 | 299 | 2.0 | 8.0 | 0.00 | 0.02 | 0.00 | 54 | 1013.9 |
| 20260904183106 | 96 | 0 | 3.0 | 11.0 | 0.00 | 0.02 | 0.00 | 55 | 1014.0 |
| 20260904181559 | 96 | 180 | 1.0 | 8.0 | 0.00 | 0.02 | 0.00 | 55 | 1014.2 |
| 20260904180053 | 95 | 90 | 1.0 | 8.0 | 0.00 | 0.02 | 0.00 | 57 | 1014.2 |
| 20260904174554 | 95 | 234 | 2.0 | 6.0 | 0.00 | 0.02 | 0.00 | 56 | 1014.4 |
| 20260904173049 | 94 | 221 | 0.0 | 7.0 | 0.00 | 0.02 | 0.00 | 58 | 1014.6 |
| 20260904171542 | 94 | 253 | 2.0 | 6.0 | 0.00 | 0.02 | 0.00 | 58 | 1014.7 |
| 20260904170055 | 93 | 160 | 2.0 | 7.0 | 0.00 | 0.02 | 0.00 | 61 | 1014.9 |
| 20260904164549 | 92 | 264 | 0.0 | 11.0 | 0.00 | 0.02 | 0.00 | 63 | 1015.0 |
| 20260904163046 | 91 | 281 | 1.0 | 8.0 | 0.00 | 0.02 | 0.00 | 64 | 1015.1 |
| 20260904161544 | 90 | 235 | 2.0 | 9.0 | 0.00 | 0.02 | 0.00 | 65 | 1015.1 |
| 20260904160051 | 90 | 177 | 3.0 | 10.0 | 0.00 | 0.02 | 0.00 | 66 | 1015.2 |
| 20260904154554 | 90 | 42 | 0.0 | 5.0 | 0.00 | 0.02 | 0.00 | 67 | 1015.2 |
| 20260904153043 | 89 | 230 | 3.0 | 7.0 | 0.00 | 0.02 | 0.00 | 67 | 1015.2 |
| 20260904151553 | 89 | 223 | 2.0 | 6.0 | 0.00 | 0.02 | 0.00 | 67 | 1015.3 |
| 20260904150047 | 87 | 0 | 2.0 | 10.0 | 0.00 | 0.02 | 0.00 | 70 | 1015.1 |
| 20260904144549 | 86 | 240 | 1.0 | 5.0 | 0.00 | 0.02 | 0.00 | 70 | 1015.2 |
| 20260904143047 | 86 | 234 | 1.0 | 5.0 | 0.00 | 0.02 | 0.00 | 71 | 1015.1 |
| 20260904141543 | 85 | 226 | 0.0 | 5.0 | 0.00 | 0.02 | 0.00 | 73 | 1015.1 |
| 20260904140049 | 84 | 164 | 1.0 | 6.0 | 0.00 | 0.02 | 0.00 | 73 | 1015.1 |
| 20260904134556 | 83 | 202 | 0.0 | 1.0 | 0.00 | 0.02 | 0.00 | 76 | 1015.0 |
| 20260904133042 | 82 | 0 | 0.0 | 0.0 | 0.00 | 0.02 | 0.00 | 79 | 1015.0 |
| 20260904131548 | 79 | 0 | 0.0 | 0.0 | 0.00 | 0.02 | 0.00 | 82 | 1014.9 |
| 20260904130048 | 75 | 0 | 0.0 | 0.0 | 0.00 | 0.02 | 0.00 | 89 | 1014.9 |
| 20260904124549 | 73 | 0 | 0.0 | 0.0 | 0.00 | 0.02 | 0.00 | 92 | 1014.6 |
| 20260904123048 | 72 | 0 | 0.0 | 0.0 | 0.00 | 0.02 | 0.00 | 92 | 1014.4 |
| 20260904121543 | 71 | 0 | 0.0 | 0.0 | 0.00 | 0.02 | 0.00 | 92 | 1014.2 |
| 20260904120048 | 71 | 0 | 0.0 | 0.0 | 0.00 | 0.02 | 0.00 | 91 | 1014.2 |
| 20260904114552 | 72 | 0 | 0.0 | 1.0 | 0.00 | 0.02 | 0.00 | 91 | 1014.1 |
| 20260904113044 | 72 | 0 | 0.0 | 0.0 | 0.00 | 0.02 | 0.00 | 91 | 1013.9 |
| 20260904111546 | 72 | 0 | 0.0 | 1.0 | 0.00 | 0.02 | 0.00 | 91 | 1013.9 |
| 20260904110040 | 72 | 0 | 0.0 | 1.0 | 0.00 | 0.02 | 0.00 | 90 | 1013.7 |
| 20260904104557 | 72 | 0 | 0.0 | 0.0 | 0.00 | 0.02 | 0.00 | 89 | 1013.7 |
| 20260904103049 | 73 | 0 | 0.0 | 0.0 | 0.00 | 0.02 | 0.00 | 88 | 1013.6 |
| 20260904101543 | 73 | 0 | 0.0 | 1.0 | 0.00 | 0.02 | 0.00 | 89 | 1013.6 |
| 20260904100042 | 73 | 0 | 0.0 | 0.0 | 0.00 | 0.02 | 0.00 | 89 | 1013.5 |
| 20260904094553 | 72 | 0 | 0.0 | 0.0 | 0.00 | 0.02 | 0.00 | 90 | 1013.5 |
| 20260904093048 | 72 | 0 | 0.0 | 0.0 | 0.00 | 0.02 | 0.00 | 89 | 1013.3 |
| 20260904091544 | 72 | 0 | 0.0 | 0.0 | 0.00 | 0.02 | 0.00 | 88 | 1013.1 |
| 20260904090057 | 73 | 0 | 0.0 | 0.0 | 0.00 | 0.02 | 0.00 | 88 | 1012.9 |
| 20260904084549 | 73 | 0 | 0.0 | 0.0 | 0.00 | 0.02 | 0.00 | 88 | 1012.9 |
| 20260904083048 | 73 | 0 | 0.0 | 0.0 | 0.00 | 0.02 | 0.00 | 86 | 1012.9 |
| 20260904081542 | 74 | 0 | 0.0 | 0.0 | 0.00 | 0.02 | 0.00 | 86 | 1012.7 |
| 20260904080050 | 74 | 0 | 0.0 | 0.0 | 0.00 | 0.02 | 0.00 | 85 | 1012.7 |
| 20260904074548 | 75 | 0 | 0.0 | 0.0 | 0.00 | 0.02 | 0.00 | 85 | 1012.5 |
| 20260904073043 | 74 | 0 | 0.0 | 0.0 | 0.00 | 0.02 | 0.00 | 84 | 1012.6 |
| 20260904071552 | 75 | 0 | 0.0 | 0.0 | 0.00 | 0.02 | 0.00 | 82 | 1012.5 |
| 20260904070042 | 76 | 0 | 0.0 | 0.0 | 0.00 | 0.02 | 0.00 | 81 | 1012.5 |
| 20260904064547 | 77 | 0 | 0.0 | 0.0 | 0.00 | 0.02 | 0.00 | 81 | 1012.7 |
| 20260904063042 | 78 | 0 | 0.0 | 0.0 | 0.00 | 0.02 | 0.00 | 78 | 1012.7 |
| 20260904061542 | 78 | 0 | 0.0 | 0.0 | 0.00 | 0.02 | 0.00 | 77 | 1012.5 |
| 20260904060042 | 78 | 0 | 0.0 | 0.0 | 0.00 | 0.02 | 0.00 | 76 | 1012.5 |
| 20260904054548 | 77 | 0 | 0.0 | 0.0 | 0.00 | 0.02 | 0.00 | 78 | 1012.5 |
| 20260904053046 | 77 | 0 | 0.0 | 0.0 | 0.00 | 0.02 | 0.00 | 78 | 1012.5 |
| 20260904051552 | 77 | 0 | 0.0 | 0.0 | 0.00 | 0.02 | 0.00 | 77 | 1012.4 |
| 20260904050051 | 77 | 0 | 0.0 | 0.0 | 0.00 | 0.02 | 0.00 | 78 | 1012.3 |
| 20260904044548 | 77 | 0 | 0.0 | 0.0 | 0.00 | 0.02 | 0.02 | 80 | 1012.3 |
| 20260904043042 | 77 | 0 | 0.0 | 0.0 | 0.00 | 0.02 | 0.02 | 79 | 1012.2 |
| 20260904041542 | 78 | 0 | 0.0 | 0.0 | 0.00 | 0.02 | 0.02 | 78 | 1012.1 |
| 20260904040054 | 78 | 0 | 0.0 | 0.0 | 0.00 | 0.02 | 0.02 | 78 | 1012.1 |
| 20260904034548 | 79 | 0 | 0.0 | 0.0 | 0.00 | 0.02 | 0.02 | 77 | 1012.1 |
| 20260904033042 | 79 | 0 | 0.0 | 0.0 | 0.00 | 0.02 | 0.02 | 77 | 1012.2 |
| 20260904031542 | 79 | 0 | 0.0 | 0.0 | 0.00 | 0.02 | 0.02 | 76 | 1012.2 |
| 20260904030048 | 79 | 0 | 0.0 | 0.0 | 0.00 | 0.02 | 0.02 | 75 | 1012.2 |
| 20260904024544 | 80 | 0 | 0.0 | 0.0 | 0.00 | 0.02 | 0.02 | 74 | 1012.2 |
| 20260904023044 | 81 | 0 | 0.0 | 0.0 | 0.00 | 0.02 | 0.02 | 71 | 1012.2 |
| 20260904021550 | 82 | 0 | 0.0 | 0.0 | 0.00 | 0.02 | 0.02 | 70 | 1012.0 |
| 20260904020041 | 83 | 0 | 0.0 | 0.0 | 0.00 | 0.02 | 0.02 | 68 | 1011.7 |
| 20260904014553 | 84 | 0 | 0.0 | 0.0 | 0.00 | 0.02 | 0.02 | 66 | 1011.5 |
| 20260904013041 | 86 | 0 | 0.0 | 0.0 | 0.00 | 0.02 | 0.02 | 65 | 1011.3 |
| 20260904011557 | 87 | 0 | 0.0 | 0.0 | 0.00 | 0.02 | 0.02 | 63 | 1011.2 |
| 20260904010040 | 88 | 0 | 0.0 | 0.0 | 0.00 | 0.02 | 0.02 | 61 | 1011.0 |
| 20260904004548 | 90 | 0 | 0.0 | 0.0 | 0.00 | 0.02 | 0.02 | 59 | 1011.0 |
| 20260904003042 | 91 | 0 | 0.0 | 4.0 | 0.00 | 0.02 | 0.02 | 57 | 1010.9 |